User: anonymous   Login
Location: Brachbach
(49.1847°N, 9.7240°E)
Time: 12:55:46
(UTC+00:00)
Language:

Cosmos 2278 - Orbit

View from above orbital plane
View from above orbital plane
View from above satellite
View from above satellite

Ground track
Ground track

The orbit data is extracted from the following two-line orbital elements,

1 23087U 94023A   24205.82837191  .00000583  00000-0  33095-3 0  9999
2 23087  71.0556 337.3597 0010078 223.9478 136.0844 14.14118495560841
Epoch (UTC): 23 July 2024 19:52:51
Eccentricity: 0.0010078
inclination: 71.0556°
perigee height: 838 km
apogee height: 852 km
right ascension of ascending node: 337.3597°
argument of perigee: 223.9478°
revolutions per day: 14.14118495
mean anomaly at epoch: 136.0844°
orbit number at epoch: 56084

The dashed part of the orbit path shows where the satellite is in the earth's shadow,  

DLR